Погода в Дамкуле

Узбекистан     40°18′48″N   71°48′53″E
темп.,
°C
ветер,
м/с
пор.,
м/с
влажн.,
%
обл.,
%
осадки,
мм/ч
давл.,
гПа
погр.,
м
23 октября, сб
сб2323:00+5вюв1155100 0.0 103617
02:00+6ю1152100 0.0 103541
05:00+3ссв115949 0.0 103510
08:00+6всв11495 0.0 1035158
11:00+10св33390 0.0 10331122
14:00+13св33270 0.0 10291394
17:00+11ссв33250 0.0 102847
20:00+7юв11310 0.0 102910
24 октября, вс
вс2423:00+6юв11330 0.0 102810
02:00+5юв11350 0.0 102610
05:00+4сз00380 0.0 102510
08:00+8сз00280 0.0 102538
11:00+13с21220 0.0 1021636
14:00+15ссв22190 0.0 1018984
17:00+12с22240 0.0 101710
20:00+8ююв11290 0.0 101810
25 октября, пн
пн2523:00+8вюв11300 0.0 101710
02:00+7в11360 0.0 101610
05:00+5всв11450 0.0 101710
08:00+10з11250 0.0 101813
11:00+15ссз21180 0.0 1017590
14:00+18ссз21160 0.0 1015882
17:00+13ссз22240 0.0 101610
20:00+10ююв11280 0.0 101610
26 октября, вт
вт2623:00+9вюв11290 0.0 101711
02:00+8юз00450 0.0 101710
05:00+7юз11472 0.0 101810
08:00+12юв0028100 0.0 101911
11:00+17с2118100 0.0 1019545
14:00+19ссз2116100 0.0 1018975
17:00+14ссз112581 0.0 101911
20:00+10вюв11291 0.0 102010
27 октября, ср
ср2723:00+9юв11302 0.0 102010
02:00+8ю0031100 0.0 102010
05:00+8юз114087 0.0 102010
08:00+12зюз2225100 0.0 102116
11:00+15зсз4422100 0.0 1022674
14:00+16сз3326100 0.0 10211279
17:00+12с2345100 0.0 102347
20:00+10вюв3353100 0.0 102544